Location: *
(43.0409°N, 0.1694°E)
Time: 21:21:13
(UTC+00:00)

Cosmos 1867 - Pass Details

Date: 03 October 2023
Orbit: 774 x 800 km, 65.0° (Epoch: 04 December)

Event Time Altitude Azimuth Distance (km) Brightness Sun altitude
Exits shadow 04:01:20 20° 319° (NW) 1,780 5.1 -22.0°
Maximum altitude 04:05:08 68° 241° (WSW) 863 3.5 -21.3°
Drops below altitude 10° 04:10:32 10° 159° (SSE) 2,364 6.1 -20.4°
Sets 04:12:57 0° 156° (SSE) 3,288 6.9 -20.0°
